Flag for U.S.A. Weather past 2 weeks in San Francisco, California, U.S.A.

64 °F

Partly cloudy.

Feels Like: 64 °F
Forecast: 57 / 72 °F
Wind: 21 mph from Northwest

Location: San Francisco International Airport

Current Time: Oct 8, 2015 at 8:57:12 PM

Latest Report: Oct 8, 2015 at 7:56 PM

Visibility: 10 mi

Pressure: 30.04 "Hg

Humidity: 68%

Dew point: 53 °F

Location of San FranciscoLocation

Historic Weather in San Francisco — Graph


San Francisco temperature yesterday

Maximum temperature yesterday: 73 °F (at 1:56 PM)
Minimum temperature yesterday: 59 °F (at 9:56 PM)
Average temperature yesterday: 63 °F

Past Weeks' High & Low Weather Summary

High79 °F (Oct 8, 1:56 PM)93% (Sep 28, 1:56 AM)30.14 "Hg (Sep 28, 1:56 AM)
Low54 °F (Oct 4, 4:56 AM)36% (Sep 24, 4:56 PM)29.45 "Hg (Oct 3, 9:56 PM)
Average63 °F72%29.91 "Hg
* Reported Sep 23 6:56 PM — Oct 8 6:56 PM, San Francisco, Weather by CustomWeather, © 2015

Note: Actual official high and low records may vary slightly from our data, if they occured in-between our weather recording intervals... More about our weather records


San Francisco weather history for previous 24 hours

Time TempWeatherWind HumidityBarometerVisibility
6:56 PM
Thu, Oct 8
67 °FBroken clouds.16 mph61%30.03 "Hg10 mi
5:56 PM72 °FBroken clouds.15 mph53%30.03 "Hg10 mi
4:56 PM72 °FBroken clouds.18 mph52%30.04 "Hg10 mi
3:56 PM75 °FBroken clouds.18 mph48%30.05 "Hg10 mi
2:56 PM79 °FPartly sunny.20 mph38%30.05 "Hg10 mi
1:56 PM79 °FPartly sunny.13 mph47%30.06 "Hg10 mi
12:56 PM71 °FPartly sunny.5 mph71%30.08 "Hg10 mi
11:56 AM69 °FPartly sunny.5 mph73%30.09 "Hg10 mi
10:56 AM68 °FPartly sunny.3 mph76%30.10 "Hg10 mi
9:56 AM65 °FPartly sunny.3 mph81%30.10 "Hg10 mi
8:56 AM64 °FScattered clouds.No wind78%30.11 "Hg10 mi
7:56 AM61 °FPassing clouds.No wind78%30.09 "Hg10 mi
6:56 AM61 °FPassing clouds.3 mph81%30.08 "Hg10 mi
5:56 AM59 °FPassing clouds.No wind81%30.08 "Hg10 mi
4:56 AM59 °FPassing clouds.3 mph84%30.09 "Hg10 mi
3:56 AM60 °FPassing clouds.No wind80%30.08 "Hg10 mi
2:56 AM60 °FPassing clouds.5 mph83%30.10 "Hg10 mi
1:56 AM60 °FPassing clouds.6 mph83%30.10 "Hg10 mi
12:56 AM62 °FPassing clouds.5 mph78%30.09 "Hg10 mi
11:56 PM
Wed, Oct 7
61 °FPassing clouds.No wind81%30.11 "Hg10 mi
10:56 PM59 °FPassing clouds.9 mph84%30.13 "Hg10 mi
9:56 PM59 °FPassing clouds.17 mph84%30.13 "Hg10 mi
8:56 PM60 °FPassing clouds.18 mph83%30.12 "Hg10 mi
Weather by CustomWeather, © 2015

See weather overviewHow to use our weather pages